Location: Feigenhofen
(48.4939°N, 10.7793°E)
Time: 16:38:01
(UTC+00:00)

AQUA - Pass Details

Date: 26 May 2022
Orbit: 701 x 703 km, 98.2° (Epoch: 29 June)

Event Time Altitude Azimuth Distance (km) Brightness Sun altitude
Rises 01:11:39 0° 16° (NNE) 3,103 8.8 -15.6°
Reaches altitude 10° 01:13:56 10° 19° (NNE) 2,180 7.7 -15.4°
Maximum altitude 01:18:42 68° 102° (ESE) 758 4.0 -15.0°
Enters shadow 01:22:00 20° 183° (S) 1,608 5.2 -14.8°
